Total_Precipitation_Accumulation
0.01 0.02 0.02 0.02 0.01 0.07 0.08 0.03 0.02 0.04 0.03 0.00 0.00 0.01 0.01 0.00 0.01 0.22 0.32 0.21 0.20 0.39 0.45 0.39 0.33 0.43 0.70 0.73 0.83 0.39 0.16 0.13 0.02
0.01 0.01 0.01 0.04 0.03 0.04 0.08 0.08 0.06 0.08 0.05 0.01 0.00 0.01 0.01 0.00 0.14 0.21 0.18 0.33 0.39 0.35 0.34 0.36 0.26 0.45 0.79 0.54 0.53 0.61 0.24 0.11 0.02
0.01 0.04 0.05 0.05 0.07 0.04 0.02 0.05 0.10 0.12 0.06 0.05 0.03 0.00 0.00 0.01 0.17 0.10 0.26 0.27 0.50 0.57 0.62 0.61 0.43 0.38 0.86 0.82 0.52 0.47 0.49 0.28 0.07
0.03 0.03 0.04 0.06 0.07 0.10 0.09 0.07 0.07 0.09 0.07 0.08 0.03 0.03 0.00 0.01 0.16 0.16 0.26 0.33 0.55 0.72 0.63 0.47 0.56 0.56 0.80 0.92 0.71 0.58 0.47 0.36 0.20
0.02 0.01 0.01 0.02 0.04 0.06 0.07 0.05 0.03 0.03 0.03 0.04 0.03 0.04 0.05 0.01 0.10 0.19 0.15 0.21 0.58 0.65 0.62 0.43 0.53 0.53 0.55 0.63 0.70 0.62 0.56 0.40 0.32
0.00 0.01 0.01 0.05 0.06 0.03 0.06 0.09 0.06 0.01 0.00 0.02 0.06 0.04 0.01 0.00 0.02 0.09 0.15 0.25 0.63 0.63 0.64 0.48 0.37 0.45 0.55 0.51 0.54 0.59 0.59 0.58 0.49
0.00 0.00 0.00 0.03 0.02 0.00 0.03 0.06 0.02 0.02 0.07 0.05 0.08 0.07 0.06 0.05 0.03 0.02 0.04 0.28 0.90 0.87 0.67 0.70 0.53 0.43 0.50 0.85 0.76 0.71 0.64 0.81 0.86
0.00 0.00 0.00 0.01 0.02 0.05 0.06 0.04 0.02 0.07 0.12 0.10 0.12 0.10 0.08 0.17 0.19 0.16 0.16 0.27 0.60 0.82 1.03 0.92 0.63 0.58 0.78 0.64 1.18 1.25 1.09 1.15 1.54
0.00 0.00 0.00 0.00 0.00 0.02 0.08 0.14 0.11 0.11 0.17 0.22 0.29 0.29 0.20 0.34 0.37 0.41 0.31 0.24 0.41 0.63 1.16 1.87 1.58 1.04 0.89 0.75 1.15 1.66 1.95 1.80 1.37
0.00 0.00 0.00 0.00 0.00 0.00 0.02 0.08 0.17 0.22 0.24 0.28 0.30 0.29 0.26 0.28 0.44 0.47 0.50 0.46 0.47 0.56 0.65 1.15 2.16 2.08 1.77 1.62 1.32 1.56 1.57 1.47 1.70
0.00 0.00 0.00 0.00 0.00 0.00 0.01 0.03 0.05 0.09 0.19 0.27 0.35 0.36 0.35 0.31 0.28 0.48 0.71 0.70 0.46 0.43 0.55 0.67 1.08 2.10 2.18 1.57 1.11 0.87 1.16 1.46 1.55
0.00 0.00 0.00 0.00 0.00 0.00 0.00 0.00 0.00 0.03 0.08 0.12 0.12 0.19 0.26 0.29 0.31 0.36 0.55 0.82 0.85 0.72 0.66 0.80 0.90 0.92 1.32 1.66 1.57 1.09 0.80 1.09 1.28
0.00 0.00 0.00 0.00 0.00 0.00 0.00 0.00 0.00 0.00 0.00 0.04 0.05 0.05 0.09 0.16 0.23 0.33 0.55 0.94 1.05 0.89 0.89 0.96 1.09 1.03 0.96 1.03 1.10 1.05 0.86 0.61 0.70
0.00 0.00 0.00 0.00 0.00 0.00 0.00 0.00 0.00 0.00 0.00 0.00 0.00 0.00 0.00 0.01 0.02 0.08 0.16 0.33 0.56 0.50 0.42 0.47 0.60 0.69 0.68 0.69 0.70 0.71 0.65 0.61 0.53
0.00 0.00 0.00 0.00 0.00 0.00 0.00 0.00 0.00 0.00 0.00 0.00 0.00 0.00 0.00 0.00 0.00 0.04 0.11 0.20 0.43 0.61 0.63 0.50 0.37 0.36 0.40 0.46 0.49 0.48 0.52 0.59 0.47
0.00 0.00 0.00 0.00 0.00 0.00 0.00 0.00 0.00 0.00 0.00 0.00 0.00 0.00 0.00 0.00 0.01 0.04 0.07 0.08 0.12 0.17 0.31 0.51 0.54 0.48 0.42 0.41 0.41 0.36 0.42 0.50 0.66
0.00 0.00 0.00 0.00 0.00 0.00 0.00 0.00 0.00 0.00 0.00 0.00 0.00 0.00 0.00 0.00 0.00 0.02 0.02 0.01 0.01 0.02 0.05 0.09 0.15 0.23 0.29 0.38 0.39 0.36 0.37 0.57 0.86
0.00 0.00 0.00 0.00 0.00 0.00 0.00 0.00 0.00 0.00 0.00 0.00 0.00 0.00 0.00 0.00 0.00 0.00 0.00 0.01 0.02 0.02 0.02 0.02 0.06 0.12 0.20 0.24 0.19 0.29 0.36 0.53 0.52
0.00 0.00 0.00 0.00 0.00 0.00 0.00 0.00 0.00 0.00 0.00 0.00 0.00 0.00 0.00 0.00 0.00 0.00 0.00 0.00 0.01 0.01 0.01 0.01 0.02 0.03 0.07 0.16 0.25 0.30 0.34 0.43 0.46
0.00 0.00 0.00 0.00 0.00 0.00 0.00 0.00 0.00 0.00 0.00 0.00 0.00 0.00 0.00 0.00 0.00 0.00 0.00 0.00 0.00 0.00 0.00 0.01 0.00 0.01 0.01 0.02 0.07 0.14 0.20 0.33 0.42